Location: Aufkirchen
(47.9603°N, 11.3653°E)
Time: 15:31:31
(UTC+01:00)

ISS - Visible Passes

Search period start: 09 December 2023 00:00
Search period end: 19 December 2023 00:00
Orbit: 415 x 417 km, 51.6° (Epoch: 09 December)

Date Brightness Start Highest point End Pass type
(mag) Time Alt. Az. Time Alt. Az. Time Alt. Az.
15 Dec -0.5 06:57:21 10° S 06:59:23 15° SE 07:01:25 10° E visible
17 Dec -1.9 06:54:42 10° SSW 06:57:44 33° SE 07:00:47 10° E visible
18 Dec -1.2 06:06:11 10° SSW 06:08:47 21° SE 06:11:24 10° E visible
